Metcalfe, MS

1:03 AM CST on February 14, 2016 (GMT -0600)
Mid Delta Regional

Weather History for KGLH - March, 2012

Change the Weather History Date:

Thursday, March 1, 2012

  Actual Average Record
Temperature  
Mean Temperature 64 °F 51 °F  
Max Temperature 76 °F 61 °F 83 °F (1932)
Min Temperature 51 °F 41 °F 22 °F (1937)
Degree Days  
Heating Degree Days 1 15  
Month to date heating degree days 1 15  
Since 1 July heating degree days 1958 2324  
Cooling Degree Days 0 0  
Month to date cooling degree days 0 0  
Year to date cooling degree days 4 5  
Growing Degree Days 14 (Base 50)    
Moisture  
Dew Point 57 °F    
Average Humidity 77    
Maximum Humidity 100    
Minimum Humidity 53    
Precipitation  
Precipitation 0.00 in 0.13 in 3.82 in (1922)
Month to date precipitation 0.00 0.13  
Year to date precipitation 4.62 10.12  
Sea Level Pressure  
Sea Level Pressure 29.88 in    
Wind  
Wind Speed 9 mph (SSE)    
Max Wind Speed 26 mph    
Max Gust Speed 32 mph    
Visibility 8 miles    
Events Fog    
T = Trace of Precipitation, MM = Missing Value Source: NWS Daily Summary

Daily Weather History Graph

Daily Weather History Graph

Search for Another Location

Airport or City:

Trip Planner

Search our weather history database for the weather conditions in past years. The results will help you decide how hot, cold, wet, or windy it might be!

Date:

Astronomy

Mar. 01, 2012 Rise Set
Actual Time 6:31 AM CST 6:01 PM CST
Civil Twilight 6:06 AM CST 6:26 PM CST
Nautical Twilight 5:37 AM CST 6:54 PM CST
Astronomical Twilight 5:09 AM CST 7:23 PM CST
Moon 11:34 AM CST (3/1) 1:17 AM CST (3/1)
Length of Visible Light 12h 19m
Length of Day
11h 29m
First Quarter, 57% of the Moon is Illuminated
Mar 1
First Quarter
Mar 8
Full
Mar 14
Last Quarter
Mar 22
New
Mar 30
First Quarter

Hourly Weather History & Observations

Time (CST) Temp. Dew Point Humidity Pressure Visibility Wind Dir Wind Speed Gust Speed Precip Events Conditions
12:53 AM 62.1 °F 61.0 °F 96% 29.96 in 5.0 mi NW 4.6 mph - N/A   Mostly Cloudy
1:46 AM 59.0 °F 59.0 °F 100% 29.95 in 0.8 mi NW 3.5 mph - N/A   Mostly Cloudy
1:53 AM 60.1 °F 60.1 °F 100% 29.96 in 0.5 mi NW 3.5 mph - N/A Fog Fog
1:59 AM 57.2 °F 57.2 °F 100% 29.94 in 0.2 mi Calm Calm - N/A Fog Fog
2:40 AM 59.0 °F 59.0 °F 100% 29.95 in 1.0 mi NNW 4.6 mph - N/A   Mostly Cloudy
2:47 AM 57.2 °F 57.2 °F 100% 29.94 in 3.0 mi NNW 5.8 mph - N/A   Mostly Cloudy
2:53 AM 55.0 °F 55.0 °F 100% 29.96 in 3.0 mi NNW 6.9 mph - N/A   Mostly Cloudy
3:53 AM 55.9 °F 54.0 °F 93% 29.97 in 10.0 mi North 3.5 mph - N/A   Mostly Cloudy
4:53 AM 52.0 °F 51.1 °F 97% 29.98 in 10.0 mi Calm Calm - N/A   Scattered Clouds
5:53 AM 52.0 °F 50.0 °F 93% 29.98 in 10.0 mi North 3.5 mph - N/A   Partly Cloudy
6:53 AM 53.1 °F 46.0 °F 77% 29.99 in 10.0 mi ENE 4.6 mph - N/A   Clear
7:53 AM 57.9 °F 46.9 °F 67% 29.99 in 10.0 mi ENE 6.9 mph - N/A   Clear
8:53 AM 63.0 °F 46.0 °F 54% 29.99 in 10.0 mi East 8.1 mph - N/A   Clear
9:53 AM 66.2 °F 50.0 °F 56% 29.95 in 10.0 mi ESE 10.4 mph - N/A   Clear
10:53 AM 68.0 °F 52.0 °F 56% 29.95 in 10.0 mi ESE 10.4 mph - N/A   Clear
11:53 AM 72.0 °F 55.0 °F 55% 29.92 in 10.0 mi SSE 9.2 mph - N/A   Clear
12:53 PM 73.0 °F 55.0 °F 53% 29.88 in 10.0 mi South 10.4 mph - N/A   Clear
1:53 PM 75.0 °F 57.0 °F 53% 29.85 in 10.0 mi South 11.5 mph - N/A   Clear
2:53 PM 73.9 °F 59.0 °F 59% 29.83 in 10.0 mi SW 10.4 mph - N/A   Overcast
3:53 PM 75.2 °F 62.6 °F 65% 29.78 in 10.0 mi SSW 6.9 mph - N/A   Clear
4:53 PM 75.9 °F 63.0 °F 64% 29.77 in 10.0 mi South 8.1 mph - N/A   Clear
5:53 PM 73.9 °F 63.0 °F 68% 29.75 in 10.0 mi SSE 5.8 mph - N/A   Clear
6:53 PM 71.1 °F 64.0 °F 78% 29.75 in 10.0 mi SE 6.9 mph - N/A   Mostly Cloudy
7:53 PM 71.1 °F 64.9 °F 81% 29.74 in 10.0 mi South 10.4 mph - N/A   Clear
8:53 PM 70.0 °F 64.0 °F 81% 29.74 in 10.0 mi South 11.5 mph - N/A   Clear
9:53 PM 71.1 °F 64.0 °F 78% 29.75 in 10.0 mi South 13.8 mph - N/A   Clear
10:53 PM 71.1 °F 63.0 °F 75% 29.74 in 10.0 mi South 16.1 mph 26.5 mph N/A   Clear
11:53 PM 70.0 °F 63.0 °F 78% 29.74 in 10.0 mi SSW 20.7 mph 28.8 mph N/A   Overcast